Regional Weather Roundup
Issued by NWS

Home | Current Version | Previous Version | Text Only | Print | Product List | Glossary Off
Versions: 1 2 3 4 5 6 7 8 9 10 11 12 13 14 15 16 17 18 19 20 21 22 23 24 25 26 27 28 29 30 31 32 33 34 35 36 37 38 39 40 41 42 43 44 45 46 47 48 49 50

000
ASUS43 KLOT 271800
RWRIL

ILLINOIS REGIONAL WEATHER ROUNDUP
NATIONAL WEATHER SERVICE CHICAGO/ROMEOVILLE IL
100 PM CDT WED AUG 27 2014

NOTE: "FAIR" INDICATES FEW OR NO CLOUDS BELOW 12,000 FEET WITH NO
SIGNIFICANT WEATHER AND/OR OBSTRUCTIONS TO VISIBILITY.

* THESE STATIONS ARE NOT UNDER NWS QUALITY CONTROL. THEY ALSO MAY NOT
  REPORT WEATHER SUCH AS PRECIPITATION OR FOG.

ILZ001-002-007-009-015-016-024-271900-
NORTHWEST ILLINOIS

CITY           SKY/WX    TMP DP  RH WIND       PRES   REMARKS
MOLINE         FAIR      78  63  59 VRB3      30.16S HX  80
6HR MIN TEMP:  69; 6HR MAX TEMP:  79;

STERLING*      FAIR      81  64  57 NE5       30.16S HX  82
$$

ILZ003-004-008-010-011-017-018-271900-
NORTH CENTRAL ILLINOIS

CITY           SKY/WX    TMP DP  RH WIND       PRES   REMARKS
ROCKFORD       PTSUNNY   80  58  46 VRB3      30.17S HX  80
6HR MIN TEMP:  65; 6HR MAX TEMP:  80;

$$

ILZ005-006-012>014-019>023-271900-
NORTHEAST ILLINOIS

CITY           SKY/WX    TMP DP  RH WIND       PRES   REMARKS
CHICAGO-OHARE  PTSUNNY   80  57  45 VRB6      30.14S HX  80
6HR MIN TEMP:  68; 6HR MAX TEMP:  80;

CHICAGO-MIDWAY PTSUNNY   81  61  50 NE7       30.14S HX  82
6HR MIN TEMP:  72; 6HR MAX TEMP:  81;

AURORA         MOSUNNY   79  59  50 NW3       30.15S HX  80
6HR MIN TEMP:  65; 6HR MAX TEMP:  80;

WAUKEGAN       PTSUNNY   72  63  73 NE9       30.16S
6HR MIN TEMP:  63; 6HR MAX TEMP:  74;

DUPAGE AIRPORT MOSUNNY   82  60  47 N5        30.14F HX  82
6HR MIN TEMP:  65; 6HR MAX TEMP:  82;

WHEELING       MOSUNNY   79  65  62 NE8       30.16S HX  81
6HR MIN TEMP:  67; 6HR MAX TEMP:  79;

NORTHERLY ISL    N/A     73  65  75 NE7         N/A
$$

LMZ740>746-271900-
SOUTHERN LAKE MICHIGAN

STATION/POSITION SKY/WX   TEMP    WIND        PRES    VSBY  WAVE
                          AIR SEA DIR/SP/G                  HT/PER
                          (F)     (DEG/KT/KT) (MB)    (MI)  (FT/S)
SOUTHERN BUOY              67 70   60/  8/ 10 1021.6R         0
WAUKEGAN HARBOR            69      40/  9/ 10   N/A
HARRISON CRIB              70      50/  4/  5   N/A
BURNHAM HARBOR             73      40/  5/  6   N/A
CALUMET HARBOR             72      20/  6/  8 1019.6R
MICHIGAN CITY              70      10/  8/  9   N/A
MICHIGAN CITY 6N           71 74   10/ 10/ 12   N/A           1/ 2
ST. JOSEPH                 70 74  350/ 14/ 16   N/A           1/ 2
$$

ILZ025>027-034>036-040-047-049-050-058-095>099-271900-
WEST-CENTRAL ILLINOIS

CITY           SKY/WX    TMP DP  RH WIND       PRES   REMARKS
QUINCY         FAIR      81  74  79 N8        30.14S THUNDER HX  86
MACOMB*        FAIR      78  70  77 N5        30.17F HX  80
$$

ILZ028>032-037-038-041>044-048-051>054-059>061-271900-
CENTRAL ILLINOIS

CITY           SKY/WX    TMP DP  RH WIND       PRES   REMARKS
DECATUR        CLOUDY    83  75  77 NW3       30.12S HX  90
PEORIA         FAIR      85  68  56 NE3       30.13S HX  88
6HR MIN TEMP:  73; 6HR MAX TEMP:  86;

SPRINGFIELD    CLOUDY    85  74  69 E6        30.12S HX  92
6HR MIN TEMP:  74; 6HR MAX TEMP:  85;

TAYLORVILLE    NOT AVBL
$$

ILZ033-039-045-046-055>057-062-063-271900-
EAST-CENTRAL ILLINOIS

CITY           SKY/WX    TMP DP  RH WIND       PRES   REMARKS
CHAMPAIGN      CLOUDY    86  74  67 E6        30.12S HX  94
MATTOON        FAIR      87  72  60 NW5       30.10F HX  93
$$

ILZ079-100>102-271900-
SOUTHWEST ILLINOIS

CITY           SKY/WX    TMP DP  RH WIND       PRES   REMARKS
ALTON          PTSUNNY   88  72  58 N7        30.10F HX  94
BELLEVILLE     FAIR      91  76  60 VRB2      30.08F HX 103
CAHOKIA*       SUNNY     91  73  55 CALM      30.08F HX 100
$$

ILZ064>066-069>071-074>076-080>082-084>086-088>090-092>094-271900-
SOUTH-CENTRAL ILLINOIS

CITY           SKY/WX    TMP DP  RH WIND       PRES   REMARKS
CARBONDALE     FAIR      90  73  57 CALM      30.08F HX  98
6HR MIN TEMP:  71; 6HR MAX TEMP:  91;

MARION         MOSUNNY   91  72  52 CALM      30.09F HX  98
MT. VERNON     FAIR      90  75  62 N3        30.09F HX 100
SALEM*         FAIR      91  77  63 CALM      30.10S HX 103
$$

ILZ067-068-072-073-078-083-087-091-271900-
SOUTHEAST ILLINOIS

CITY           SKY/WX    TMP DP  RH WIND       PRES   REMARKS
LAWRENCEVILLE  MOSUNNY   89  75  63 N5        30.08F HX  99
HARRISBURG*    FAIR      91  71  52 CALM      30.09F HX  97
$$

ABBREVIATIONS USED IN REMARKS
   TC - TEMPERATURE IN CELSIUS
  WCI - WIND CHILL INDEX
   HX - HEAT INDEX
  VSB - VISIBILITY
$$




USA.gov is the U.S. government's official web portal to all federal, state and local government web resources and services.